#timestamp,LO_Frequency,Hit 
1500404415.6,286047003.7,N
1500404435.4,286047004.4,N
1500404455.5,286047003.5,N
1500404475.3,286047005.7,N
1500404495.2,286047006.0,N
1500404515.9,286047005.7,N
1500404535.7,286047004.0,N
1500404555.6,286047002.0,N
1500404575.4,286047004.0,N
1500404595.2,286047004.0,N
1500404615.1,286047004.3,N
1500404616.0,286047004.3,N
1500404635.8,286047003.5,N
1500404655.7,286047002.9,N
1500404675.5,286047003.5,N
1500404695.3,286047003.4,N
1500404715.2,286047005.6,N
1500404735.0,286047005.8,N
1500404735.9,286047005.8,N
1500404755.8,286047004.7,N
1500404775.6,286047005.8,N
1500404795.4,286047007.3,N
1500404815.3,286047005.4,N
1500404835.1,286047003.3,N
1500404855.8,286047004.1,N
1500404875.7,286047003.3,N
1500404895.5,286047004.2,N
1500404915.4,286047004.2,N
1500404935.2,286047003.1,N
1500404955.0,286047001.8,N
1500404955.9,286047001.8,N
1500404975.8,286047005.7,N
1500404995.6,286047003.7,N
1500405015.4,286047003.5,N
1500405035.3,286047003.1,N
1500405055.1,286047003.9,N
1500405075.9,286047005.6,N
1500405095.7,286047006.0,N
1500405115.5,286047006.0,N
1500405135.4,286047005.4,N
1500405155.2,286047002.9,N
1500405175.0,286047003.2,N
1500405176.0,286047003.2,N
1500405195.8,286047004.2,N
1500405215.6,286047003.8,N
1500405235.5,286047001.3,N
1500405255.3,286047002.8,N
1500405275.1,286047002.4,N
1500405295.9,286047005.8,N
1500405315.7,286047005.1,N
1500405335.6,286047007.1,N
1500405355.4,286047005.5,N
1500405375.2,286047003.0,N
1500405395.1,286047003.7,N
1500405396.0,286047003.7,N
1500405415.8,286047003.1,N
1500405435.6,286047003.3,N
1500405455.5,286047001.7,N
1500405475.3,286047004.0,N
1500405495.2,286047002.9,N
1500405515.9,286047004.1,N
1500405535.7,286047004.3,N
1500405555.6,286047002.6,N
1500405575.4,286047000.1,N
1500405595.2,286047002.1,N
1500405615.1,286047006.0,N
1500405616.0,286047006.0,N
1500405635.8,286047005.5,N
1500405655.7,286047001.3,N
1500405675.5,286047004.1,N
1500405695.3,286047003.5,N
1500405715.2,286047004.3,N
1500405735.0,286047001.3,N
1500405735.9,286047001.3,N
1500405755.8,286047003.2,N
1500405775.6,286047005.8,N
1500405795.4,286047004.7,N
1500405815.3,286047004.6,N
1500405835.1,286047006.3,N
1500405855.8,286047008.0,N
1500405875.7,286047008.2,N
1500405895.5,286047007.5,N
1500405915.4,286047007.3,N
1500405935.2,286047004.9,N
1500405955.0,286047005.3,N
1500405955.9,286047005.3,N
1500405975.8,286047005.7,N
1500405995.6,286047004.6,N
1500406015.4,286047006.8,N
1500406035.3,286047007.4,N
1500406055.1,286047005.3,N
1500406075.9,286047005.9,N
1500406095.7,286047007.6,N
1500406115.5,286047004.8,N
1500406135.4,286047004.6,N
1500406155.2,286047004.7,N
1500406175.0,286047006.5,N
1500406175.9,286047006.5,N
1500406195.8,286047004.9,N
1500406215.6,286047004.8,N
1500406235.5,286047004.6,N
1500406255.3,286047007.4,N
1500406275.1,286047006.1,N
1500406295.9,286047006.6,N
1500406315.7,286047007.8,N
1500406335.5,286047008.2,N
1500406355.4,286047008.0,N
1500406375.2,286047008.0,N
1500406395.1,286047008.0,N
1500406396.0,286047008.0,N
1500406415.8,286047008.2,N
1500406435.6,286047009.1,N
1500406455.5,286047008.6,N
1500406475.3,286047010.2,N
1500406495.1,286047010.3,N
1500406515.9,286047010.7,N
1500406535.7,286047010.1,N
1500406555.6,286047008.2,N
1500406575.4,286047006.1,N
1500406595.2,286047008.2,N
1500406615.1,286047007.8,N
1500406616.0,286047007.8,N
1500406635.8,286047007.7,N
1500406655.7,286047010.5,N
1500406675.5,286047010.2,N
1500406695.3,286047008.1,N
1500406715.2,286047008.5,N
1500406735.0,286047007.4,N
1500406735.9,286047007.4,N
1500406755.7,286047006.4,N
1500406775.6,286047006.5,N
1500406795.4,286047008.1,N
1500406815.3,286047008.2,N
1500406835.1,286047008.5,N
1500406836.0,286047008.5,N
1500406855.8,286047010.1,N
1500406875.7,286047009.5,N
1500406895.5,286047012.2,N
1500406915.4,286047010.6,N
1500406935.2,286047010.8,N
1500406955.0,286047010.1,N
1500406955.9,286047010.1,N
1500406975.8,286047010.8,N
1500406995.6,286047008.8,N
1500407015.4,286047006.1,N
1500407035.3,286047010.8,N
1500407055.1,286047010.8,N
1500407075.9,286047008.5,N
1500407095.7,286047007.5,N
1500407115.5,286047007.4,N
1500407135.4,286047007.0,N
1500407155.2,286047006.5,N
1500407175.0,286047006.4,N
1500407175.9,286047006.4,N
1500407195.8,286047007.1,N
1500407215.6,286047006.3,N
1500407235.5,286047006.9,N
1500407255.3,286047008.5,N
1500407275.1,286047008.6,N
1500407295.9,286047009.0,N
1500407315.7,286047006.5,N
1500407335.5,286047007.8,N
1500407355.4,286047010.2,N
1500407375.2,286047007.7,N
1500407395.1,286047010.7,N
1500407396.0,286047010.7,N
1500407415.8,286047009.5,N
1500407435.6,286047012.0,N
1500407455.5,286047010.7,N
1500407475.3,286047009.9,N
1500407495.1,286047009.7,N
1500407515.9,286047011.5,N
1500407535.7,286047012.4,N
1500407555.6,286047009.8,N
1500407575.4,286047010.6,N
1500407595.2,286047009.6,N
1500407615.1,286047012.3,N
1500407616.0,286047012.3,N
1500407635.8,286047009.3,N
1500407655.6,286047011.7,N
1500407675.5,286047012.1,N
1500407695.3,286047011.5,N
1500407715.2,286047010.0,N
1500407735.9,286047007.7,N
1500407755.7,286047010.1,N
1500407775.6,286047010.1,N
1500407795.4,286047009.5,N
1500407815.2,286047011.9,N
1500407835.1,286047012.4,N
1500407836.0,286047012.4,N
1500407855.8,286047012.0,N
1500407875.7,286047012.1,N
1500407895.5,286047011.9,N
1500407915.3,286047010.5,N
1500407935.2,286047009.8,N
1500407955.0,286047011.5,N
1500407955.9,286047011.5,N
1500407975.8,286047009.4,N
1500407995.6,286047012.4,N
